1483516800.02,55940,9.19,71546.5,-10.63,-12.03,-11.89,0,*68
1483516801.32,55941,9.19,71616.3,-10.63,-11.93,-11.93,0,*68
1483516802.61,55942,9.19,71598.3,-10.63,-11.89,-11.89,0,*6B
1483516803.88,55943,9.25,71548.0,-10.63,-12.15,-12.21,0,*6D
1483516805.12,55944,9.19,71532.0,-10.63,-12.29,-12.21,0,*65
1483516806.35,55945,9.19,71532.5,-10.65,-12.21,-12.29,0,*62
1483516807.59,55946,9.19,71512.8,-10.63,-12.29,-12.29,0,*6F
1483516808.84,55947,9.19,71544.8,-10.63,-12.29,-12.29,0,*6E
1483516810.1,55948,9.19,71504.5,-10.63,-12.47,-12.53,0,*64
1483516811.39,55949,9.19,71506.5,-10.63,-12.61,-12.65,0,*64
1483516812.65,55950,9.25,71508.8,-10.63,-12.47,-12.53,0,*6D
1483516813.89,55951,9.25,71518.3,-10.65,-12.43,-12.53,0,*6E
1483516815.13,55952,9.19,71524.5,-10.65,-12.35,-12.43,0,*6D
1483516816.35,55953,9.25,71536.3,-10.65,-12.47,-12.47,0,*6D
1483516817.57,55954,9.19,71574.0,-10.65,-12.47,-12.29,0,*62
1483516818.78,55955,9.25,71546.3,-10.65,-12.43,-12.29,0,*67
1483516820.0,55956,9.19,71570.5,-10.65,-12.47,-12.43,0,*6C
1483516821.24,55957,9.25,71558.5,-10.63,-12.47,-12.47,0,*6F
1483516822.48,55958,9.25,71560.5,-10.65,-12.53,-12.43,0,*67
1483516823.75,55959,9.19,71542.5,-10.67,-12.61,-12.47,0,*61
1483516825.04,55960,9.19,71522.3,-10.63,-12.75,-12.61,0,*6E
1483516826.31,55961,9.19,71544.3,-10.65,-12.75,-12.53,0,*68
1483516827.55,55962,9.19,71564.5,-10.65,-12.61,-12.47,0,*6B
1483516828.84,55963,9.25,71584.5,-10.67,-12.53,-12.35,0,*6C
1483516830.11,55964,9.25,71556.5,-10.65,-12.61,-12.35,0,*68
1483516831.35,55965,9.19,71522.0,-10.65,-12.61,-12.29,0,*64
1483516832.59,55966,9.25,71516.5,-10.65,-12.61,-12.43,0,*6B
1483516833.83,55967,9.25,71594.3,-10.65,-12.53,-12.43,0,*6B
1483516835.08,55968,9.25,71542.5,-10.65,-12.35,-12.29,0,*68
1483516836.29,55969,9.19,71484.8,-10.65,-12.43,-12.29,0,*68
1483516837.51,55970,9.25,71510.5,-10.65,-12.47,-12.29,0,*64
1483516838.76,55971,9.25,71528.8,-10.65,-12.35,-12.29,0,*60
1483516839.98,55972,9.19,71534.3,-10.65,-12.29,-12.21,0,*66
1483516841.22,55973,9.19,71526.8,-10.65,-12.35,-12.29,0,*62
1483516842.52,55974,9.19,71520.0,-10.67,-12.35,-12.35,0,*6A
1483516843.77,55975,9.25,71520.8,-10.67,-12.29,-12.21,0,*63
1483516845.01,55976,9.19,71538.0,-10.67,-12.29,-12.29,0,*68
1483516846.26,55977,9.19,71534.0,-10.67,-12.47,-12.43,0,*6D
1483516847.5,55978,9.19,71534.3,-10.67,-12.29,-12.21,0,*6E
1483516848.76,55979,9.25,71542.3,-10.67,-12.21,-12.21,0,*67
1483516850.01,55980,9.25,71542.0,-10.67,-12.21,-12.29,0,*69
1483516851.28,55981,9.19,71548.5,-10.67,-12.21,-12.15,0,*67
1483516852.5,55982,9.19,71538.3,-10.69,-12.21,-12.25,0,*69
1483516853.74,55983,9.25,71532.5,-10.69,-12.35,-12.21,0,*69
1483516855.0,55984,9.25,71520.8,-10.67,-12.21,-12.21,0,*65
1483516856.27,55985,9.25,71502.8,-10.67,-12.29,-12.35,0,*69
1483516857.52,55986,9.25,71510.3,-10.67,-12.29,-12.29,0,*67
1483516858.79,55987,9.25,71502.3,-10.67,-12.07,-12.03,0,*62
1483516860.09,55988,9.19,71500.5,-10.67,-11.93,-11.93,0,*69
1483516861.36,55989,9.25,71536.8,-10.69,-11.93,-11.93,0,*66
1483516862.66,55990,9.19,71542.3,-10.67,-11.89,-11.89,0,*60
1483516863.96,55991,9.25,71548.5,-10.67,-11.93,-11.93,0,*61
1483516865.2,55992,9.25,71572.8,-10.67,-12.03,-12.03,0,*62
1483516866.47,55993,9.19,71558.8,-10.67,-12.03,-12.07,0,*67
1483516867.76,55994,9.25,71566.3,-10.67,-12.15,-12.15,0,*64
1483516869.0,55995,9.19,71546.0,-10.63,-12.21,-12.21,0,*61
1483516870.28,55996,9.25,71542.5,-10.65,-12.35,-12.35,0,*64
1483516871.57,55997,9.19,71514.0,-10.63,-12.35,-12.35,0,*63
1483516872.83,55998,9.19,71496.5,-10.63,-12.35,-12.43,0,*6D
1483516874.13,55999,9.19,71508.8,-10.63,-12.35,-12.35,0,*6D
1483516875.34,56000,9.19,71504.3,-10.65,-12.43,-12.43,0,*61
1483516876.61,56001,9.19,71598.5,-10.63,-12.53,-12.43,0,*67
1483516877.87,56002,9.25,71598.8,-10.63,-12.89,-12.53,0,*62
1483516879.14,56003,9.25,71578.5,-10.63,-13.07,-12.53,0,*64
1483516880.38,56004,9.25,71560.8,-10.65,-13.01,-12.47,0,*66
1483516881.65,56005,9.25,71544.0,-10.63,-12.75,-12.29,0,*6B
1483516882.89,56006,9.19,71544.8,-10.63,-12.43,-12.21,0,*65
1483516884.13,56007,9.25,71558.5,-10.63,-12.47,-12.29,0,*68
1483516885.42,56008,9.25,71514.3,-10.63,-12.79,-12.53,0,*67
1483516886.71,56009,9.25,71432.8,-10.63,-12.61,-12.35,0,*6F
1483516887.98,56010,9.19,71444.5,-10.63,-12.21,-12.07,0,*62
1483516889.2,56011,9.25,71468.5,-10.65,-12.29,-12.21,0,*69
1483516890.47,56012,9.25,71418.8,-10.63,-12.53,-12.47,0,*61
1483516891.76,56013,9.25,71424.8,-10.59,-12.11,-11.97,0,*61
1483516893.01,56014,9.25,71420.8,-10.63,-12.21,-12.21,0,*62
1483516894.3,56015,9.25,71414.0,-10.63,-12.15,-12.07,0,*60
1483516895.59,56016,9.25,71434.8,-10.63,-12.15,-12.07,0,*63
1483516896.86,56017,9.25,71504.3,-10.59,-12.03,-11.97,0,*66
1483516898.1,56018,9.25,71554.5,-10.65,-11.93,-12.03,0,*62
1483516899.35,56019,9.25,71558.8,-10.63,-12.29,-12.29,0,*6F
1483516900.58,56020,9.19,71534.8,-10.63,-12.43,-12.43,0,*65
1483516901.83,56021,9.25,71510.0,-10.63,-12.21,-12.21,0,*64
1483516903.06,56022,9.19,71482.5,-10.65,-12.29,-12.29,0,*61
1483516904.3,56023,9.25,71490.5,-10.63,-12.29,-12.29,0,*66
1483516905.54,56024,9.25,71502.5,-10.65,-12.43,-12.35,0,*66
1483516906.81,56025,9.25,71474.5,-10.63,-12.35,-12.43,0,*61
1483516908.04,56026,9.25,71484.3,-10.63,-12.43,-12.43,0,*63
1483516909.26,56027,9.25,71512.3,-10.65,-12.43,-12.43,0,*64
1483516910.49,56028,9.25,71506.0,-10.63,-12.43,-12.43,0,*6D
1483516911.79,56029,9.25,71530.8,-10.63,-12.35,-12.35,0,*6C
1483516913.08,56030,9.25,71540.3,-10.63,-12.35,-12.35,0,*64
1483516914.3,56031,9.19,71532.8,-10.65,-12.29,-12.29,0,*63
1483516915.55,56032,9.25,71520.3,-10.65,-12.29,-12.35,0,*6D
1483516916.77,56033,9.25,71520.0,-10.65,-12.29,-12.29,0,*61
1483516918.01,56034,9.25,71476.8,-10.63,-12.43,-12.29,0,*6C
1483516919.25,56035,9.25,71498.0,-10.63,-12.47,-12.47,0,*61
1483516920.46,56036,9.25,71560.3,-10.65,-12.43,-12.47,0,*60
1483516921.7,56037,9.19,71566.0,-10.65,-12.47,-12.65,0,*65
1483516922.97,56038,9.25,71544.0,-10.65,-12.75,-12.79,0,*66
1483516924.21,56039,9.25,71516.8,-10.63,-13.19,-12.89,0,*65
1483516925.48,56040,9.19,71498.5,-10.65,-13.33,-12.79,0,*6A
1483516926.75,56041,9.25,71490.8,-10.63,-13.19,-12.75,0,*69
1483516928.01,56042,9.19,71488.3,-10.63,-13.15,-12.79,0,*6A
1483516929.26,56043,9.25,71516.3,-10.65,-13.19,-12.79,0,*61
1483516930.52,56044,9.25,71516.0,-10.65,-13.33,-13.01,0,*60
1483516931.76,56045,9.25,71500.5,-10.63,-13.73,-13.19,0,*6A
1483516933.03,56046,9.19,71506.0,-10.65,-13.79,-13.29,0,*66
1483516934.3,56047,9.25,71470.5,-10.65,-13.37,-12.79,0,*69
1483516935.56,56048,9.25,71448.3,-10.65,-13.29,-12.65,0,*64
1483516936.83,56049,9.25,71438.8,-10.63,-13.01,-12.47,0,*69
1483516938.09,56050,9.19,71456.5,-10.63,-12.89,-12.35,0,*65
1483516939.35,56051,9.25,71502.3,-10.59,-12.43,-12.15,0,*69
1483516940.65,56052,9.25,71514.3,-10.63,-12.35,-12.07,0,*61
1483516941.91,56053,9.25,71564.3,-10.63,-12.61,-12.29,0,*6D
1483516943.2,56054,9.25,71544.0,-10.63,-13.01,-12.53,0,*60
1483516944.49,56055,9.25,71562.5,-10.63,-13.29,-12.65,0,*6E
1483516945.75,56056,9.25,71530.5,-10.63,-13.33,-12.43,0,*62
1483516947.0,56057,9.25,71482.0,-10.57,-12.93,-11.93,0,*61
1483516948.29,56058,9.25,71498.5,-10.59,-12.75,-12.11,0,*61
1483516949.59,56059,9.19,71500.0,-10.59,-12.71,-12.11,0,*64
1483516950.85,56060,9.25,71494.8,-10.59,-12.39,-12.11,0,*62
1483516952.14,56061,9.25,71520.5,-10.59,-12.15,-11.97,0,*60
1483516953.41,56062,9.25,71524.3,-10.59,-12.25,-12.11,0,*6D
1483516954.68,56063,9.25,71512.3,-10.57,-12.11,-11.97,0,*68
1483516955.95,56064,9.25,71512.8,-10.59,-12.15,-12.03,0,*6B
1483516957.22,56065,9.25,71510.5,-10.59,-12.03,-11.97,0,*63
1483516958.48,56066,9.25,71482.0,-10.57,-11.97,-11.85,0,*63
1483516959.75,56067,9.25,71474.0,-10.57,-11.97,-11.85,0,*62
1483516961.04,56068,9.25,71476.3,-10.59,-11.97,-11.97,0,*60
1483516962.31,56069,9.19,71466.3,-10.57,-11.97,-11.97,0,*6F
1483516963.58,56070,9.25,71460.3,-10.57,-12.11,-12.07,0,*60
1483516964.85,56071,9.25,71488.5,-10.57,-11.97,-11.97,0,*66
1483516966.12,56072,9.25,71484.8,-10.57,-12.07,-11.85,0,*6C
1483516967.38,56073,9.19,71492.8,-10.59,-12.03,-11.89,0,*6B
1483516968.66,56074,9.19,71476.5,-10.57,-11.97,-11.93,0,*67
1483516969.93,56075,9.25,71500.0,-10.57,-11.97,-11.93,0,*66
1483516971.19,56076,9.25,71536.5,-10.57,-11.97,-11.97,0,*61
1483516972.47,56077,9.25,71542.0,-10.57,-12.07,-12.11,0,*67
1483516973.74,56078,9.25,71504.3,-10.57,-12.11,-12.11,0,*6F
1483516975.01,56079,9.25,71502.3,-10.57,-12.07,-12.07,0,*6E
1483516976.28,56080,9.25,71532.8,-10.57,-12.07,-11.97,0,*62
1483516977.5,56081,9.25,71548.5,-10.57,-12.21,-12.21,0,*69
1483516978.75,56082,9.19,71542.0,-10.57,-12.11,-12.21,0,*69
1483516980.02,56083,9.25,71542.3,-10.57,-12.07,-12.07,0,*6B
1483516981.29,56084,9.25,71540.8,-10.57,-12.07,-11.97,0,*66
1483516982.53,56085,9.25,71542.0,-10.57,-12.03,-11.97,0,*63
1483516983.8,56086,9.25,71552.8,-10.57,-11.85,-11.81,0,*6A
1483516985.06,56087,9.19,71550.3,-10.57,-11.97,-11.97,0,*6F
1483516986.34,56088,9.25,71554.0,-10.57,-11.93,-11.93,0,*60
1483516987.62,56089,9.19,71540.5,-10.57,-11.93,-11.85,0,*66
1483516988.88,56090,9.25,71542.0,-10.59,-11.97,-12.03,0,*69
1483516990.16,56091,9.25,71554.5,-10.57,-11.93,-11.93,0,*68
1483516991.44,56092,9.25,71568.5,-10.57,-11.93,-11.93,0,*6B
1483516992.71,56093,9.25,71566.8,-10.57,-11.97,-11.97,0,*6A
1483516993.97,56094,9.25,71558.0,-10.57,-11.85,-11.85,0,*6D
1483516995.24,56095,9.19,71532.5,-10.57,-11.81,-11.73,0,*61
1483516996.52,56096,9.25,71554.3,-10.57,-11.93,-11.93,0,*6F
1483516997.78,56097,9.25,71560.5,-10.57,-11.85,-11.81,0,*6A
1483516999.04,56098,9.25,71574.3,-10.57,-11.73,-11.81,0,*6C
1483517000.33,56099,9.25,71582.0,-10.55,-11.81,-11.85,0,*66
1483517001.61,56100,9.19,71592.0,-10.55,-11.73,-11.73,0,*63
1483517002.9,56101,9.25,71586.8,-10.55,-11.81,-11.77,0,*6B
1483517004.19,56102,9.19,71600.0,-10.55,-11.73,-11.73,0,*61
1483517005.45,56103,9.25,71594.5,-10.53,-12.15,-12.15,0,*66
1483517006.69,56104,9.25,71578.0,-10.55,-12.43,-12.43,0,*67
1483517007.91,56105,9.25,71574.0,-10.57,-12.25,-12.25,0,*64
1483517009.18,56106,9.25,71568.0,-10.57,-12.11,-12.07,0,*60
1483517010.45,56107,9.19,71572.5,-10.57,-11.97,-11.97,0,*66
1483517011.74,56108,9.25,71578.0,-10.55,-11.85,-11.81,0,*6F
1483517013.03,56109,9.25,71588.5,-10.55,-11.85,-11.73,0,*63
1483517014.3,56110,9.19,71588.3,-10.53,-11.89,-11.93,0,*6F
1483517015.57,56111,9.19,71582.3,-10.55,-12.21,-12.11,0,*60
1483517016.82,56112,9.25,71556.3,-10.55,-12.25,-12.21,0,*64
1483517018.06,56113,9.25,71550.5,-10.55,-12.25,-12.25,0,*61
1483517019.36,56114,9.25,71550.3,-10.55,-12.11,-11.97,0,*6B
1483517020.65,56115,9.25,71544.0,-10.55,-11.97,-11.97,0,*67
1483517021.94,56116,9.25,71542.3,-10.55,-12.07,-11.97,0,*6E
1483517023.21,56117,9.19,71540.3,-10.55,-12.11,-12.21,0,*66
1483517024.49,56118,9.25,71550.0,-10.55,-12.21,-12.35,0,*6F
1483517025.73,56119,9.25,71548.5,-10.57,-12.35,-12.25,0,*68
1483517026.98,56120,9.25,71540.5,-10.57,-12.53,-12.43,0,*62
1483517028.25,56121,9.25,71536.3,-10.57,-12.53,-12.53,0,*62
1483517029.49,56122,9.25,71530.8,-10.57,-12.43,-12.53,0,*60
1483517030.74,56123,9.25,71514.3,-10.59,-12.29,-12.29,0,*6E
1483517032.01,56124,9.19,71520.3,-10.59,-12.15,-12.21,0,*6E
1483517033.28,56125,9.25,71550.8,-10.57,-12.07,-11.97,0,*6C
1483517034.55,56126,9.25,71538.5,-10.57,-12.11,-12.07,0,*62
1483517035.82,56127,9.19,71508.0,-10.59,-12.03,-11.97,0,*64
1483517037.11,56128,9.25,71548.0,-10.59,-11.89,-11.89,0,*65
1483517038.39,56129,9.25,71546.5,-10.57,-11.93,-11.85,0,*6D
1483517039.66,56130,9.25,71548.8,-10.57,-11.93,-11.73,0,*6C
1483517040.95,56131,9.25,71562.8,-10.59,-11.89,-11.89,0,*6D
1483517042.21,56132,9.25,71574.8,-10.57,-11.81,-11.81,0,*60
1483517043.48,56133,9.25,71570.8,-10.57,-11.81,-11.85,0,*65
1483517044.75,56134,9.25,71568.5,-10.57,-11.85,-11.85,0,*66
1483517046.01,56135,9.25,71570.5,-10.57,-11.73,-11.73,0,*67
1483517047.3,56136,9.25,71564.5,-10.55,-12.11,-12.11,0,*66
1483517048.55,56137,9.25,71574.5,-10.55,-12.25,-12.21,0,*63
1483517049.8,56138,9.25,71564.5,-10.55,-12.25,-12.25,0,*68
1483517051.03,56139,9.25,71562.0,-10.55,-12.39,-12.39,0,*69
1483517052.25,56140,9.25,71544.8,-10.57,-12.39,-12.43,0,*68
1483517053.5,56141,9.19,71546.5,-10.57,-12.35,-12.39,0,*68
1483517054.77,56142,9.25,71552.3,-10.57,-12.53,-12.57,0,*63
1483517056.01,56143,9.19,71570.3,-10.59,-12.39,-12.43,0,*65
1483517057.25,56144,9.25,71580.8,-10.59,-12.39,-12.29,0,*6E
1483517058.5,56145,9.25,71568.0,-10.59,-12.29,-12.29,0,*6E
1483517059.76,56146,9.25,71534.0,-10.59,-12.03,-12.11,0,*6E
1483517061.05,56147,9.25,71524.8,-10.59,-11.89,-11.97,0,*63
1483517062.35,56148,9.25,71532.5,-10.59,-12.11,-12.11,0,*63
1483517063.62,56149,9.25,71558.5,-10.57,-12.11,-11.97,0,*61
1483517064.91,56150,9.25,71542.3,-10.59,-12.11,-12.11,0,*6A
1483517066.16,56151,9.25,71544.0,-10.57,-12.11,-12.21,0,*66
1483517067.38,56152,9.25,71522.3,-10.57,-12.21,-12.39,0,*6F
1483517068.63,56153,9.25,71476.0,-10.59,-12.47,-12.47,0,*69
1483517069.87,56154,9.25,71506.0,-10.57,-12.43,-12.53,0,*61
1483517071.11,56155,9.25,71526.8,-10.59,-12.43,-12.47,0,*6B
1483517072.35,56156,9.25,71550.3,-10.59,-12.39,-12.43,0,*61
1483517073.57,56157,9.25,71544.3,-10.57,-12.47,-12.47,0,*63
1483517074.87,56158,9.19,71516.3,-10.59,-12.71,-12.71,0,*62
1483517076.14,56159,9.25,71488.5,-10.57,-12.65,-12.53,0,*68
1483517077.41,56160,9.25,71458.0,-10.59,-12.57,-12.43,0,*6C
1483517078.64,56161,9.25,71474.0,-10.59,-12.43,-12.39,0,*65
1483517079.93,56162,9.19,71460.0,-10.59,-12.61,-12.61,0,*6B
1483517081.22,56163,9.25,71462.8,-10.59,-12.71,-12.57,0,*6E
1483517082.51,56164,9.25,71510.5,-10.59,-12.61,-12.57,0,*68
1483517083.73,56165,9.25,71494.3,-10.57,-12.43,-12.43,0,*62
1483517084.97,56166,9.25,71494.3,-10.59,-12.43,-12.43,0,*6F
1483517086.21,56167,9.25,71508.3,-10.59,-12.43,-12.47,0,*6A
1483517087.45,56168,9.25,71508.3,-10.63,-12.47,-12.47,0,*68
1483517088.71,56169,9.25,71490.3,-10.59,-12.57,-12.47,0,*61
1483517090.0,56170,9.19,71462.3,-10.59,-12.61,-12.61,0,*68
1483517091.29,56171,9.25,71492.0,-10.59,-12.61,-12.57,0,*6C
1483517092.57,56172,9.25,71550.5,-10.63,-12.65,-12.61,0,*67
1483517093.87,56173,9.19,71566.5,-10.63,-12.79,-12.75,0,*6E
1483517095.15,56174,9.25,71552.3,-10.63,-12.75,-12.65,0,*64
1483517096.42,56175,9.25,71532.0,-10.63,-12.65,-12.47,0,*64
1483517097.7,56176,9.25,71538.0,-10.59,-12.61,-12.57,0,*6B
1483517098.97,56177,9.25,71538.8,-10.59,-12.57,-12.43,0,*6A
1483517100.24,56178,9.25,71526.3,-10.59,-12.57,-12.39,0,*68
1483517101.5,56179,9.25,71530.5,-10.59,-12.61,-12.39,0,*6C
1483517102.8,56180,9.25,71498.8,-10.63,-12.53,-12.35,0,*6E
1483517104.07,56181,9.25,71472.8,-10.59,-12.29,-12.15,0,*69
1483517105.31,56182,9.25,71468.0,-10.59,-12.29,-12.29,0,*65
1483517106.54,56183,9.19,71474.8,-10.57,-12.25,-12.21,0,*6E
1483517107.78,56184,9.25,71450.0,-10.59,-12.39,-12.29,0,*62
1483517109.03,56185,9.25,71494.0,-10.59,-12.29,-12.39,0,*63
1483517110.29,56186,9.19,71486.0,-10.59,-12.29,-12.15,0,*6E
1483517111.59,56187,9.19,71482.3,-10.59,-12.15,-12.15,0,*60
1483517112.86,56188,9.25,71486.0,-10.63,-12.29,-12.35,0,*6B
1483517114.09,56189,9.25,71496.5,-10.63,-12.43,-12.43,0,*67
1483517115.39,56190,9.25,71504.0,-10.63,-12.35,-12.35,0,*6F
1483517116.68,56191,9.25,71510.3,-10.59,-12.15,-12.15,0,*67
1483517117.92,56192,9.25,71534.3,-10.59,-12.25,-12.25,0,*64
1483517119.21,56193,9.25,71542.3,-10.59,-12.15,-12.11,0,*61
1483517120.48,56194,9.25,71546.0,-10.59,-12.25,-12.15,0,*61
1483517121.75,56195,9.25,71540.0,-10.59,-12.15,-12.03,0,*64
1483517123.02,56196,9.25,71540.8,-10.57,-11.85,-11.93,0,*69
1483517124.29,56197,9.25,71548.3,-10.59,-12.03,-11.89,0,*60
1483517125.56,56198,9.25,71548.0,-10.59,-11.97,-12.03,0,*60
1483517126.83,56199,9.25,71558.0,-10.57,-12.07,-11.93,0,*6F
1483517128.12,56200,9.25,71568.5,-10.59,-12.11,-11.97,0,*61
1483517129.39,56201,9.19,71566.0,-10.57,-12.07,-11.97,0,*69
1483517130.61,56202,9.19,71552.8,-10.57,-12.25,-12.25,0,*60
1483517131.86,56203,9.25,71550.8,-10.57,-12.35,-12.25,0,*60
1483517133.07,56204,9.25,71546.8,-10.57,-12.43,-12.25,0,*66
1483517134.34,56205,9.19,71550.0,-10.57,-12.11,-12.11,0,*67
1483517135.61,56206,9.25,71556.0,-10.59,-12.25,-12.15,0,*69
1483517136.91,56207,9.19,71564.8,-10.59,-12.11,-11.97,0,*66
1483517138.18,56208,9.19,71570.3,-10.57,-11.93,-11.93,0,*6A
1483517139.46,56209,9.25,71576.5,-10.57,-12.07,-12.07,0,*6B
1483517140.72,56210,9.25,71570.5,-10.59,-12.15,-12.25,0,*6E
1483517141.97,56211,9.25,71574.3,-10.57,-12.21,-12.11,0,*61
1483517143.2,56212,9.25,71564.5,-10.57,-12.21,-12.21,0,*61
1483517144.43,56213,9.25,71582.5,-10.57,-12.25,-12.21,0,*64
1483517145.67,56214,9.19,71570.0,-10.59,-12.29,-12.25,0,*65
1483517146.92,56215,9.19,71556.0,-10.57,-12.21,-12.11,0,*65
1483517148.15,56216,9.19,71550.3,-10.57,-12.21,-12.21,0,*65
1483517149.37,56217,9.25,71550.8,-10.57,-12.25,-12.21,0,*60
1483517150.6,56218,9.19,71554.0,-10.57,-12.21,-12.21,0,*6B
1483517151.85,56219,9.19,71554.3,-10.59,-12.29,-12.25,0,*68
1483517153.11,56220,9.25,71560.8,-10.57,-12.65,-12.57,0,*61
1483517154.36,56221,9.25,71560.5,-10.57,-12.43,-12.53,0,*60
1483517155.59,56222,9.25,71562.0,-10.57,-12.21,-12.21,0,*62
1483517156.83,56223,9.19,71556.8,-10.59,-12.25,-12.25,0,*6D
1483517158.1,56224,9.25,71554.5,-10.57,-12.11,-12.11,0,*64
1483517159.34,56225,9.19,71540.3,-10.57,-12.03,-11.97,0,*6B
1483517160.64,56226,9.19,71546.0,-10.59,-11.97,-11.89,0,*67
1483517161.9,56227,9.19,71558.8,-10.57,-11.73,-11.81,0,*6A
1483517163.17,56228,9.25,71558.0,-10.57,-11.93,-11.85,0,*6F
1483517164.44,56229,9.19,71556.5,-10.57,-11.73,-11.85,0,*60
1483517165.7,56230,9.19,71552.8,-10.57,-11.73,-11.73,0,*61
1483517166.99,56231,9.25,71586.0,-10.55,-11.67,-11.85,0,*6E
1483517168.26,56232,9.19,71578.5,-10.55,-12.39,-12.53,0,*6D
1483517169.5,56233,9.19,71574.3,-10.53,-12.35,-12.29,0,*6B
1483517170.72,56234,9.19,71572.3,-10.53,-12.43,-12.43,0,*61
1483517171.99,56235,9.25,71574.3,-10.55,-12.53,-12.39,0,*6A
1483517173.26,56236,9.25,71574.5,-10.53,-12.35,-12.15,0,*61
1483517174.53,56237,9.19,71564.8,-10.55,-12.25,-12.11,0,*63
1483517175.8,56238,9.25,71544.3,-10.55,-12.21,-11.97,0,*65
1483517177.05,56239,9.19,71526.3,-10.55,-12.25,-12.21,0,*6E
1483517178.34,56240,9.19,71510.3,-10.55,-11.93,-11.85,0,*63
1483517179.62,56241,9.19,71496.3,-10.53,-11.93,-11.89,0,*68
1483517180.87,56242,9.19,71500.0,-10.55,-12.21,-12.21,0,*66
1483517182.11,56243,9.19,71500.0,-10.55,-12.43,-12.47,0,*63
1483517183.36,56244,9.19,71518.3,-10.53,-12.35,-12.47,0,*63
1483517184.6,56245,9.19,71528.5,-10.53,-12.35,-12.47,0,*62
1483517185.87,56246,9.25,71554.5,-10.53,-12.35,-12.35,0,*64
1483517187.09,56247,9.25,71560.5,-10.53,-12.39,-12.39,0,*65
1483517188.34,56248,9.19,71552.3,-10.53,-12.21,-12.35,0,*6F
1483517189.58,56249,9.19,71554.5,-10.55,-12.39,-12.43,0,*60
1483517190.83,56250,9.19,71558.3,-10.53,-12.47,-12.75,0,*62
1483517192.04,56251,9.19,71580.0,-10.53,-12.89,-13.07,0,*65
1483517193.29,56252,9.25,71570.5,-10.55,-13.19,-13.23,0,*6E
1483517194.58,56253,9.25,71544.5,-10.55,-13.29,-13.29,0,*66
1483517195.84,56254,9.19,71540.0,-10.55,-13.55,-13.37,0,*65
1483517197.08,56255,9.25,71564.5,-10.53,-13.73,-13.37,0,*66
1483517198.3,56256,9.19,71584.8,-10.53,-13.65,-13.15,0,*62
1483517199.51,56257,9.19,71580.8,-10.53,-13.47,-12.89,0,*67
1483517200.78,56258,9.25,71588.8,-10.55,-13.23,-12.79,0,*63
1483517202.05,56259,9.19,71586.0,-10.55,-13.11,-12.53,0,*6B
1483517203.3,56260,9.19,71578.5,-10.53,-12.93,-12.61,0,*6D
1483517204.56,56261,9.19,71580.8,-10.55,-13.11,-12.79,0,*68
1483517205.84,56262,9.19,71496.5,-10.53,-13.01,-12.75,0,*60
1483517207.13,56263,9.19,71456.0,-10.55,-12.65,-12.35,0,*60
1483517208.4,56264,9.19,71528.5,-10.55,-12.53,-12.25,0,*63
1483517209.67,56265,9.25,71568.5,-10.55,-12.65,-12.43,0,*67
1483517210.91,56266,9.19,71546.8,-10.53,-12.61,-12.29,0,*6A
1483517212.16,56267,9.25,71528.8,-10.53,-12.53,-12.29,0,*6A
1483517213.46,56268,9.19,71556.3,-10.55,-12.53,-12.35,0,*6E
1483517214.69,56269,9.19,71540.8,-10.55,-12.43,-12.25,0,*6F
1483517215.97,56270,9.25,71508.8,-10.53,-12.53,-12.35,0,*61
1483517217.24,56271,9.19,71476.3,-10.55,-12.53,-12.25,0,*67
1483517218.51,56272,9.25,71466.5,-10.55,-12.53,-12.43,0,*64
1483517219.75,56273,9.25,71458.0,-10.53,-12.57,-12.43,0,*67
1483517220.97,56274,9.19,71478.5,-10.53,-12.47,-12.39,0,*6C
1483517222.21,56275,9.19,71470.8,-10.55,-12.43,-12.39,0,*6F
1483517223.45,56276,9.25,71460.0,-10.53,-12.39,-12.35,0,*6B
1483517224.69,56277,9.19,71438.5,-10.55,-12.43,-12.39,0,*6D
1483517225.97,56278,9.19,71454.3,-10.55,-12.21,-11.97,0,*61
1483517227.24,56279,9.25,71504.3,-10.57,-12.11,-12.11,0,*6C
1483517228.51,56280,9.25,71530.8,-10.57,-12.11,-12.11,0,*6A
1483517229.77,56281,9.19,71534.8,-10.55,-12.35,-12.43,0,*68
1483517231.03,56282,9.25,71554.0,-10.55,-12.21,-12.21,0,*6A
1483517232.32,56283,9.19,71554.5,-10.55,-11.97,-11.97,0,*6B
1483517233.59,56284,9.25,71556.0,-10.55,-12.21,-12.11,0,*6F
1483517234.88,56285,9.25,71556.0,-10.55,-12.11,-12.07,0,*6A
1483517236.11,56286,9.25,71536.0,-10.57,-12.21,-12.21,0,*6C
1483517237.38,56287,9.19,71542.5,-10.53,-12.07,-11.93,0,*67
1483517238.68,56288,9.19,71548.5,-10.55,-11.97,-12.07,0,*6A
1483517239.97,56289,9.19,71550.8,-10.55,-12.11,-12.07,0,*66
1483517241.26,56290,9.19,71558.5,-10.55,-11.97,-12.07,0,*63
1483517242.49,56291,9.25,71556.8,-10.53,-12.21,-12.21,0,*6E
1483517243.73,56292,9.25,71544.5,-10.55,-12.25,-12.25,0,*6B
1483517244.98,56293,9.19,71532.5,-10.53,-12.07,-12.03,0,*68
1483517246.28,56294,9.19,71536.3,-10.55,-11.93,-11.93,0,*6D
1483517247.58,56295,9.25,71538.0,-10.55,-11.93,-11.93,0,*6C
1483517248.88,56296,9.19,71536.8,-10.55,-11.93,-11.85,0,*68
1483517250.16,56297,9.25,71554.3,-10.53,-11.93,-11.93,0,*68
1483517251.45,56298,9.19,71556.0,-10.55,-12.11,-12.11,0,*61
1483517252.72,56299,9.19,71544.8,-10.53,-12.15,-12.15,0,*66
1483517253.93,56300,9.19,71548.3,-10.53,-12.39,-12.39,0,*67
1483517255.22,56301,9.19,71544.5,-10.55,-12.65,-12.57,0,*61
1483517256.44,56302,9.19,71528.0,-10.53,-12.47,-12.47,0,*65
1483517257.67,56303,9.19,71542.5,-10.53,-12.21,-12.21,0,*64
1483517258.94,56304,9.25,71556.8,-10.53,-11.93,-12.07,0,*6D
1483517260.21,56305,9.25,71580.0,-10.55,-12.35,-12.21,0,*61
1483517261.49,56306,9.25,71548.8,-10.55,-12.25,-12.35,0,*66
1483517262.76,56307,9.25,71524.0,-10.55,-12.35,-12.39,0,*6A
1483517264.0,56308,9.19,71526.3,-10.55,-12.39,-12.43,0,*64
1483517265.22,56309,9.25,71520.0,-10.53,-12.21,-12.21,0,*6E
1483517266.49,56310,9.19,71520.8,-10.55,-12.35,-12.25,0,*61
1483517267.76,56311,9.19,71508.0,-10.55,-12.35,-12.39,0,*6D
1483517269.03,56312,9.25,71506.0,-10.55,-12.25,-12.35,0,*63
1483517270.27,56313,9.19,71500.8,-10.55,-12.39,-12.25,0,*6E
1483517271.57,56314,9.25,71530.5,-10.55,-12.35,-12.35,0,*64
1483517272.87,56315,9.19,71520.5,-10.55,-12.35,-12.35,0,*65
1483517274.13,56316,9.19,71528.8,-10.55,-12.53,-12.43,0,*67
1483517275.36,56317,9.25,71546.3,-10.57,-12.25,-12.25,0,*65
1483517276.58,56318,9.25,71558.0,-10.57,-12.25,-12.25,0,*6A
1483517277.83,56319,9.19,71558.5,-10.57,-12.11,-12.21,0,*68
1483517279.05,56320,9.19,71564.5,-10.57,-12.21,-12.21,0,*61
1483517280.3,56321,9.25,71542.3,-10.57,-12.25,-12.35,0,*61
1483517281.54,56322,9.19,71540.8,-10.55,-12.39,-12.39,0,*61
1483517282.82,56323,9.19,71512.5,-10.57,-12.35,-12.35,0,*62
1483517284.09,56324,9.19,71512.3,-10.57,-12.53,-12.53,0,*65
1483517285.36,56325,9.19,71548.5,-10.57,-12.65,-12.65,0,*64
1483517286.58,56326,9.25,71554.8,-10.57,-12.25,-12.25,0,*67
1483517287.82,56327,9.19,71562.5,-10.57,-12.11,-12.21,0,*65
1483517289.05,56328,9.19,71564.8,-10.57,-12.21,-12.21,0,*69
1483517290.3,56329,9.19,71554.3,-10.57,-12.35,-12.43,0,*69
1483517291.54,56330,9.19,71508.5,-10.57,-12.47,-12.75,0,*61
1483517292.82,56331,9.19,71540.0,-10.59,-12.75,-12.89,0,*6C
1483517294.09,56332,9.25,71538.8,-10.57,-12.79,-12.79,0,*62
1483517295.36,56333,9.25,71496.8,-10.57,-12.65,-12.79,0,*6E
1483517296.65,56334,9.25,71532.8,-10.59,-13.01,-13.01,0,*6A
1483517297.91,56335,9.25,71512.0,-10.59,-13.01,-12.93,0,*61
1483517299.17,56336,9.19,71500.5,-10.59,-13.15,-13.01,0,*6D
1483517300.44,56337,9.25,71492.8,-10.59,-13.15,-12.83,0,*67
1483517301.66,56338,9.25,71490.5,-10.57,-13.23,-12.97,0,*66
1483517302.92,56339,9.25,71510.0,-10.59,-13.11,-12.83,0,*6D